Location: Newark
(34.9500°N, 139.9667°E)
Time: 16:45:35
(UTC+00:00)

Vanguard 2 Rocket - Pass Details

Date: 13 December 2019
Orbit: 554 x 3326 km, 32.9° (Epoch: 20 January)

Event Time Altitude Azimuth Distance (km) Brightness Sun altitude
Rises 04:16:00 0° 202° (SSW) 7,247 12.8 27.1°
Reaches altitude 10° 04:22:17 10° 192° (SSW) 6,275 12.7 26.5°
Maximum altitude 04:36:58 26° 144° (SE) 4,652 11.0 25.0°
Drops below altitude 10° 04:48:49 10° 96° (E) 5,088 10.5 23.7°
Sets 04:53:04 0° 84° (E) 5,703 10.6 23.2°
